392  
ASUS44 KFWD 251115  
RWRTX  
NORTH TEXAS HOURLY WEATHER ROUNDUP  
NATIONAL WEATHER SERVICE FORT WORTH TX  
600 AM CDT SAT MAY 25 2024  
 
NOTE: "FAIR" INDICATES FEW OR NO CLOUDS BELOW 12,000 FEET WITH NO  
SIGNIFICANT WEATHER AND/OR S TO VISIBILITY
.  
 
TXZ118-119-251200-  
DALLAS/FORT WORTH METROPLEX  
 
CITY SKY/WX TMP DP RH WIND PRES REMARKS
 
DFW AIRPORT FAIR 70 69 97 E3 29.77R  
DALLAS LOVE FAIR 71 69 93 CALM 29.77F  
FTW MEACHAM FAIR 70 69 97 CALM 29.77S  
DAL-EXECUTIVE FAIR 70 69 97 CALM 29.77S  
FTW-ALLIANCE FAIR 70 67 90 NE5 29.79R  
FTW-NAS-JRB FAIR 72 68 87 CALM 29.77S  
FTW-SPINKS FAIR 71 70 95 SE3 29.79S  
ARLINGTON FAIR 70 67 90 CALM 29.77S  
GRAND PRAIRIE FAIR 71 71 100 CALM 29.79S  
ADDISON CLEAR 70 68 94 CALM 29.79F  
MESQUITE FAIR 69 68 96 E6 29.80R  
LANCASTER FAIR 69 68 97 CALM 29.79R  

 
 
TXZ091>094-102>105-117-120-121-131>134-251200-  
NORTH CENTRAL TEXAS  
 
CITY SKY/WX TMP DP RH WIND PRES REMARKS
 
SHRMAN/DENISON FAIR 68 66 93 CALM 29.82R FOG  
GAINESVILLE FAIR 67 67 100 NE3 29.82R  
BOWIE FAIR 67 67 97 CALM 29.80S FOG  
BRIDGEPORT FAIR 64 64 100 CALM 29.82R FOG  
DECATUR N/A 68 67 97 CALM 29.81R FOG  
DENTON MOCLDY 68 68 100 CALM 29.79R FOG  
MCKINNEY CLOUDY 68 67 96 E6 29.81R  
BONHAM CLOUDY 69 69 99 SE7 29.82R  
GREENVILLE CLOUDY 69 69 98 E6 29.82R  
ROCKWALL MOCLDY 69 69 100 E9 29.80R  
TERRELL MOCLDY 69 67 93 NE9 29.81R  
WAXAHACHIE FAIR 73 72 96 SW5 29.79R  
CLEBURNE CLEAR 72 72 100 S5 29.79S  
GRANBURY MOCLDY 68 68 99 CALM 29.79S  

 
 
TXZ083>090-098>101-113>116-127>130-139>142-154-155-251200-  
WESTERN NORTH TEXAS  
 
CITY SKY/WX TMP DP RH WIND PRES REMARKS
 
WICHITA FALLS CLOUDY 66 60 81 E7 29.81R  
WF-KICKAPOO CLOUDY 67 61 81 E5 29.82R  
VERNON FAIR 60 53 79 SE3 29.84R  
ABILENE FAIR 66 62 87 SE5 29.81S  
ABILENE-DYESS FAIR 66 59 79 E3 29.77S HAZE  
GRAHAM FAIR 66 66 100 CALM 29.78S FOG  
BRECKENRIDGE CLOUDY 68 67 98 MISG 29.80R FOG  
CISCO FOG 70 70 100 S7 29.79S VSB<1/4  
EASTLAND FOG 72 N/A N/A S9 29.80S VSB 1/2  
RANGER FOG 73 70 89 S7 29.80S VSB 1/2  
MINERAL WELLS MOCLDY 69 66 90 CALM 29.78R FOG  
STEPHENVILLE CLOUDY 73 71 94 S7 29.82S VSB 3/4  
COMANCHE FOG 73 73 99 S3 29.81S VSB 1/2  
BROWNWOOD CLOUDY 72 70 94 CALM 29.80S  
COLEMAN MOCLDY 69 63 80 MISG 29.82R  
BRADY CLOUDY 77 75 94 SE7 29.81R FOG  
SAN SABA FAIR 76 74 94 SE8 29.81S  

 
 
TXZ143>147-156>162-174-175-251200-  
CENTRAL TEXAS  
 
CITY SKY/WX TMP DP RH WIND PRES REMARKS
 
WACO MOCLDY 75 74 96 S6 29.78R  
WACO-MCGREGOR N/A 75 75 100 CALM 29.79R  
HILLSBORO FAIR 72 72 100 CALM 29.78R FOG  
CORSICANA FAIR 73 70 90 SE5 29.80R  
MEXIA FAIR 72 71 98 MISG 29.79R  
HEARNE FAIR 77 75 94 CALM 29.79R  
CAMERON FAIR 75 74 97 CALM 29.78R FOG  
KILLEEN MOCLDY 77 75 94 S7 29.79R  
FORT CAVAZOS CLOUDY 77 75 93 S6 29.79S  
GATESVILLE CLOUDY 77 77 100 SE3 29.80S  
HAMILTON FAIR 75 75 100 CALM 29.81S FOG  

 
 
TXZ095>097-106>112-122>126-135>138-148>153-164>167-251200-  
EAST TEXAS  
 
CITY SKY/WX TMP DP RH WIND PRES REMARKS
 
PARIS CLOUDY 71 71 100 E6 29.83R  
SULPHUR SPRNGS CLOUDY 71 70 96 CALM 29.84S  
MOUNT PLEASANT CLOUDY 73 N/A N/A CALM 29.82R FOG  
GILMER CLOUDY 74 70 87 CALM 29.82R  
MINEOLA CLOUDY 72 N/A N/A CALM 29.82R  
TYLER CLOUDY 74 73 97 E3 29.81S FOG  
LONGVIEW MOCLDY 77 76 96 SE5 29.81R FOG  
MARSHALL FAIR 74 74 100 S3 29.81R  
ATHENS MOCLDY 72 72 100 CALM 29.79R FOG  
PALESTINE FAIR 75 75 100 SE3 29.78R FOG  
JACKSONVILLE CLOUDY 74 74 99 S5 29.83R  
HENDERSON CLOUDY 78 76 92 CALM 29.84R  
CENTER MOCLDY 77 73 88 CALM 29.84R  
NACOGDOCHES CLOUDY 76 32 20 SE5 29.83R HAZE  
LUFKIN CLOUDY 77 76 96 E3 29.82R  

 
 
SUPPLEMENTAL OBSERVATIONS (NWS FORT WORTH AREA)  
 
CITY SKY/WX TMP DP RH WIND PRES REMARKS
 
CADDO GRASSLND N/A 70 64 83 SE5 N/A  
LBJ GRASSLAND N/A 68 66 94 NE2 N/A  
POSSUM KINGDOM N/A 70 68 94 E3 N/A  
GRANBURY N/A 70 68 94 CALM N/A  
COMANCHE N/A 73 72 94 S5 N/A  
MCGREGOR N/A 73 72 94 CALM N/A  
LAKE LIMESTONE N/A 75 72 88 CALM N/A  
PALESTINE N/A 73 72 94 S1 N/A  

 
 
SUPPLEMENTAL OBSERVATIONS (NWS NORMAN AREA)  
 
CITY SKY/WX TMP DP RH WIND PRES REMARKS
 
GOODLETT N/A 58 49 71 SW5 29.84  
ODELL N/A 63 54 72 SE7 29.84S  
CROWELL N/A 61 54 77 CALM 29.85R  
KNOX CITY N/A 59 56 88 VRB5 29.81  
SEYMOUR N/A 64 62 93 CALM 29.81S  
MILLERS CREEK N/A 63 59 88 SE2 N/A  

 
 
SUPPLEMENTAL OBSERVATIONS (NWS SAN ANGELO AREA)  
 
CITY SKY/WX TMP DP RH WIND PRES REMARKS
 
WEINERT N/A 62 58 86 E5 29.82S  
HASKELL N/A 64 59 82 E3 29.80  
THROCKMORTON N/A 61 61 99 CALM 29.81  
STAMFORD N/A 62 61 96 VRB8 29.81  
CLYDE N/A 69 66 92 SE7 29.84S  
HAMBY N/A 70 64 83 S2G12 N/A  
IVIE RESERVOIR N/A 73 64 73 E9 N/A  
COLORADO BEND N/A 73 72 94 S5 N/A  

 
 
SUPPLEMENTAL OBSERVATIONS (NWS SHREVEPORT AREA)  
 
CITY SKY/WX TMP DP RH WIND PRES REMARKS
 
TEXARKANA N/A 72 70 94 CALM N/A  
CADDO LAKE N/A 73 72 94 CALM N/A  
LUFKIN N/A 75 73 94 MISG N/A  
N SABINE NF N/A 75 73 94 MISG N/A  

 
 
SUPPLEMENTAL OBSERVATIONS ARE A COLLECTION OF AUTOMATED INSTRUMENTS  
THAT ARE MAINTAINED BY A VARIETY OF FEDERAL AND STATE AGENCIES.  
CERTAIN ELEMENTS...SUCH AS HUMIDITY VALUES AND SUSTAINED WIND  
SPEEDS...MAY BE APPROXIMATED.  
 
 
 
CLICK HERE TO GO TO PREVIOUS BULLETINS.

The Nexlab TX Page Main Text Page